| time (UTC) | temp F | wind direction | speed MPH | gust MPH | rain 1hr in | rain 24hr in | rain mn in | humidity % | barometer mb |
| 20260906224507 | 77 | 344 | 0.0 | 2.0 | 0.00 | 0.01 | 0.01 | 58 | 1014.3 |
| 20260906223007 | 78 | 360 | 0.0 | 3.0 | 0.00 | 0.01 | 0.01 | 54 | 1014.3 |
| 20260906221509 | 80 | 349 | 1.0 | 4.0 | 0.00 | 0.01 | 0.01 | 50 | 1014.2 |
| 20260906220006 | 81 | 342 | 0.0 | 5.0 | 0.00 | 0.01 | 0.01 | 47 | 1014.1 |
| 20260906214504 | 81 | 340 | 0.0 | 4.0 | 0.00 | 0.01 | 0.01 | 46 | 1014.0 |
| 20260906213005 | 82 | 336 | 0.0 | 3.0 | 0.00 | 0.01 | 0.01 | 48 | 1013.9 |
| 20260906211505 | 81 | 329 | 0.0 | 3.0 | 0.00 | 0.01 | 0.01 | 45 | 1014.1 |
| 20260906210007 | 82 | 349 | 1.0 | 5.0 | 0.00 | 0.01 | 0.01 | 44 | 1014.1 |
| 20260906204503 | 82 | 348 | 1.0 | 5.0 | 0.00 | 0.51 | 0.01 | 43 | 1014.1 |
| 20260906203003 | 82 | 355 | 0.0 | 4.0 | 0.00 | 0.51 | 0.01 | 43 | 1014.0 |
| 20260906201502 | 81 | 347 | 1.0 | 4.0 | 0.00 | 0.51 | 0.01 | 45 | 1014.1 |
| 20260906200100 | 81 | 342 | 1.0 | 4.0 | 0.00 | 0.51 | 0.01 | 45 | 1014.0 |
| 20260906194600 | 81 | 346 | 1.0 | 9.0 | 0.00 | 0.51 | 0.01 | 46 | 1014.1 |
| 20260906193059 | 82 | 355 | 0.0 | 5.0 | 0.00 | 0.51 | 0.01 | 48 | 1014.1 |
| 20260906191559 | 82 | 347 | 1.0 | 3.0 | 0.00 | 0.51 | 0.01 | 46 | 1014.2 |
| 20260906190057 | 82 | 348 | 0.0 | 4.0 | 0.00 | 0.51 | 0.01 | 48 | 1014.2 |
| 20260906184600 | 81 | 355 | 1.0 | 4.0 | 0.00 | 0.51 | 0.01 | 49 | 1014.3 |
| 20260906183056 | 81 | 344 | 1.0 | 6.0 | 0.00 | 0.51 | 0.01 | 48 | 1014.6 |
| 20260906181558 | 82 | 355 | 0.0 | 5.0 | 0.00 | 0.51 | 0.01 | 52 | 1014.6 |
| 20260906180053 | 80 | 348 | 0.0 | 4.0 | 0.00 | 0.51 | 0.01 | 55 | 1014.7 |
| 20260906174550 | 80 | 349 | 1.0 | 8.0 | 0.00 | 0.64 | 0.01 | 56 | 1014.8 |
| 20260906173052 | 80 | 346 | 0.0 | 3.0 | 0.00 | 0.64 | 0.01 | 58 | 1014.8 |
| 20260906171547 | 78 | 342 | 0.0 | 5.0 | 0.00 | 0.64 | 0.01 | 57 | 1014.8 |
| 20260906170044 | 79 | 360 | 1.0 | 4.0 | 0.00 | 0.64 | 0.01 | 59 | 1015.0 |
| 20260906164541 | 79 | 98 | 0.0 | 3.0 | 0.00 | 0.64 | 0.01 | 58 | 1015.1 |
| 20260906163038 | 78 | 224 | 0.0 | 4.0 | 0.00 | 0.64 | 0.01 | 61 | 1015.2 |
| 20260906161538 | 78 | 58 | 0.0 | 2.0 | 0.00 | 0.64 | 0.01 | 61 | 1015.2 |
| 20260906160039 | 77 | 104 | 0.0 | 3.0 | 0.00 | 0.64 | 0.01 | 66 | 1015.4 |
| 20260906154544 | 76 | 338 | 0.0 | 4.0 | 0.00 | 0.64 | 0.01 | 66 | 1015.3 |
| 20260906153036 | 75 | 340 | 0.0 | 2.0 | 0.00 | 0.64 | 0.01 | 70 | 1015.3 |
| 20260906151525 | 74 | 346 | 0.0 | 2.0 | 0.00 | 0.64 | 0.01 | 71 | 1015.4 |
| 20260906150023 | 73 | 342 | 0.0 | 2.0 | 0.00 | 0.64 | 0.01 | 73 | 1015.3 |
| 20260906144518 | 71 | 340 | 0.0 | 3.0 | 0.00 | 0.64 | 0.01 | 77 | 1015.3 |
| 20260906143012 | 70 | 343 | 0.0 | 2.0 | 0.00 | 0.64 | 0.01 | 80 | 1015.3 |
| 20260906141509 | 68 | 338 | 0.0 | 3.0 | 0.00 | 0.64 | 0.01 | 86 | 1015.2 |
| 20260906140010 | 67 | 341 | 0.0 | 2.0 | 0.00 | 0.64 | 0.01 | 87 | 1015.1 |
| 20260906134507 | 66 | 347 | 0.0 | 2.0 | 0.00 | 0.64 | 0.01 | 88 | 1015.1 |
| 20260906133006 | 65 | 344 | 0.0 | 2.0 | 0.00 | 0.64 | 0.01 | 91 | 1015.2 |
| 20260906131508 | 65 | 346 | 0.0 | 2.0 | 0.00 | 0.64 | 0.01 | 92 | 1015.1 |
| 20260906130012 | 64 | 344 | 0.0 | 2.0 | 0.00 | 0.64 | 0.01 | 94 | 1015.1 |
| 20260906124503 | 64 | 343 | 0.0 | 2.0 | 0.00 | 0.64 | 0.01 | 95 | 1014.9 |
| 20260906123005 | 63 | 342 | 0.0 | 2.0 | 0.00 | 0.64 | 0.01 | 96 | 1014.9 |
| 20260906121600 | 63 | 342 | 0.0 | 2.0 | 0.00 | 0.64 | 0.01 | 96 | 1014.7 |
| 20260906120113 | 63 | 342 | 0.0 | 2.0 | 0.00 | 0.64 | 0.01 | 96 | 1014.7 |
| 20260906114556 | 62 | 342 | 0.0 | 0.0 | 0.00 | 0.64 | 0.01 | 96 | 1014.3 |
| 20260906113055 | 62 | 342 | 0.0 | 0.0 | 0.00 | 0.64 | 0.01 | 95 | 1014.1 |
| 20260906111554 | 62 | 342 | 0.0 | 0.0 | 0.00 | 0.64 | 0.01 | 95 | 1013.8 |
| 20260906110052 | 62 | 342 | 0.0 | 0.0 | 0.00 | 0.64 | 0.01 | 95 | 1013.9 |
| 20260906104552 | 62 | 342 | 0.0 | 2.0 | 0.00 | 0.64 | 0.01 | 95 | 1013.8 |
| 20260906103053 | 62 | 344 | 0.0 | 2.0 | 0.00 | 0.64 | 0.01 | 95 | 1013.5 |
| 20260906101549 | 62 | 344 | 0.0 | 2.0 | 0.00 | 0.64 | 0.01 | 95 | 1013.3 |
| 20260906100046 | 62 | 344 | 0.0 | 2.0 | 0.00 | 0.64 | 0.01 | 95 | 1013.0 |
| 20260906094546 | 62 | 344 | 0.0 | 2.0 | 0.00 | 0.64 | 0.01 | 95 | 1013.1 |
| 20260906093044 | 62 | 344 | 0.0 | 2.0 | 0.00 | 0.64 | 0.01 | 95 | 1013.0 |
| 20260906091542 | 63 | 344 | 0.0 | 2.0 | 0.00 | 0.64 | 0.01 | 95 | 1012.9 |
| 20260906090040 | 63 | 344 | 0.0 | 2.0 | 0.00 | 0.64 | 0.01 | 95 | 1012.6 |
| 20260906084539 | 63 | 345 | 0.0 | 2.0 | 0.00 | 0.64 | 0.01 | 95 | 1012.6 |
| 20260906083043 | 63 | 345 | 0.0 | 2.0 | 0.00 | 0.64 | 0.01 | 95 | 1012.5 |
| 20260906081541 | 64 | 81 | 0.0 | 2.0 | 0.00 | 0.64 | 0.01 | 94 | 1012.4 |
| 20260906080035 | 64 | 81 | 0.0 | 0.0 | 0.00 | 0.64 | 0.01 | 95 | 1012.4 |
| 20260906074535 | 65 | 82 | 0.0 | 0.0 | 0.00 | 0.64 | 0.01 | 95 | 1012.4 |
| 20260906073033 | 65 | 82 | 0.0 | 0.0 | 0.00 | 0.64 | 0.01 | 94 | 1012.4 |
| 20260906071528 | 66 | 82 | 0.0 | 0.0 | 0.00 | 0.64 | 0.01 | 95 | 1012.3 |
| 20260906070030 | 66 | 82 | 0.0 | 0.0 | 0.01 | 0.64 | 0.01 | 95 | 1012.2 |
| 20260906064533 | 67 | 82 | 0.0 | 0.0 | 0.01 | 0.64 | 0.01 | 95 | 1012.2 |
| 20260906063025 | 67 | 82 | 0.0 | 0.0 | 0.01 | 0.64 | 0.01 | 95 | 1012.3 |
| 20260906061523 | 67 | 82 | 0.0 | 0.0 | 0.01 | 0.64 | 0.01 | 95 | 1012.3 |
| 20260906060023 | 67 | 82 | 0.0 | 0.0 | 0.00 | 0.63 | 0.00 | 95 | 1012.2 |
| 20260906054521 | 67 | 82 | 0.0 | 0.0 | 0.00 | 0.63 | 0.00 | 95 | 1012.1 |
| 20260906053027 | 67 | 82 | 0.0 | 0.0 | 0.00 | 0.63 | 0.00 | 95 | 1012.1 |
| 20260906051529 | 68 | 82 | 0.0 | 0.0 | 0.00 | 0.63 | 0.00 | 95 | 1012.1 |
| 20260906050044 | 68 | 82 | 0.0 | 0.0 | 0.00 | 0.63 | 0.00 | 95 | 1012.2 |
| 20260906044517 | 68 | 82 | 0.0 | 0.0 | 0.00 | 0.63 | 0.00 | 95 | 1012.2 |
| 20260906043016 | 68 | 82 | 0.0 | 0.0 | 0.00 | 0.63 | 0.00 | 95 | 1012.2 |
| 20260906041516 | 69 | 82 | 0.0 | 0.0 | 0.00 | 0.63 | 0.00 | 95 | 1012.6 |
| 20260906040011 | 69 | 82 | 0.0 | 2.0 | 0.00 | 0.63 | 0.00 | 95 | 1012.4 |
| 20260906034510 | 69 | 82 | 0.0 | 0.0 | 0.00 | 0.63 | 0.63 | 95 | 1012.5 |
| 20260906033011 | 69 | 82 | 0.0 | 0.0 | 0.00 | 0.63 | 0.63 | 95 | 1012.4 |
| 20260906031514 | 69 | 82 | 0.0 | 0.0 | 0.00 | 0.63 | 0.63 | 95 | 1012.5 |
| 20260906030009 | 70 | 82 | 0.0 | 0.0 | 0.00 | 0.63 | 0.63 | 95 | 1012.5 |
| 20260906024510 | 70 | 82 | 0.0 | 0.0 | 0.00 | 0.63 | 0.63 | 95 | 1012.5 |
| 20260906023008 | 70 | 84 | 0.0 | 0.0 | 0.00 | 0.63 | 0.63 | 95 | 1012.3 |
| 20260906021508 | 70 | 84 | 0.0 | 0.0 | 0.00 | 0.63 | 0.63 | 95 | 1012.0 |
| 20260906020008 | 70 | 84 | 0.0 | 0.0 | 0.00 | 0.63 | 0.63 | 94 | 1011.9 |
| 20260906014509 | 71 | 84 | 0.0 | 0.0 | 0.00 | 0.63 | 0.63 | 94 | 1011.8 |
| 20260906013009 | 71 | 84 | 0.0 | 0.0 | 0.00 | 0.63 | 0.63 | 95 | 1011.7 |
| 20260906011507 | 71 | 84 | 0.0 | 0.0 | 0.00 | 0.63 | 0.63 | 95 | 1011.4 |
| 20260906010005 | 71 | 84 | 0.0 | 0.0 | 0.00 | 0.63 | 0.63 | 95 | 1011.3 |
| 20260906004506 | 71 | 84 | 0.0 | 2.0 | 0.00 | 0.63 | 0.63 | 95 | 1011.2 |
| 20260906003005 | 71 | 84 | 0.0 | 2.0 | 0.00 | 0.63 | 0.63 | 94 | 1010.9 |
| 20260906001502 | 71 | 83 | 0.0 | 0.0 | 0.00 | 0.63 | 0.63 | 94 | 1010.9 |
| 20260906000002 | 71 | 83 | 0.0 | 2.0 | 0.00 | 0.63 | 0.63 | 94 | 1010.9 |
| 20260905234501 | 71 | 83 | 0.0 | 2.0 | 0.00 | 0.63 | 0.63 | 94 | 1011.0 |
| 20260905233001 | 72 | 84 | 0.0 | 2.0 | 0.00 | 0.63 | 0.63 | 93 | 1010.9 |
| 20260905231501 | 72 | 84 | 0.0 | 1.0 | 0.00 | 0.63 | 0.63 | 93 | 1010.8 |
| 20260905230101 | 72 | 84 | 0.0 | 2.0 | 0.00 | 0.63 | 0.63 | 93 | 1010.7 |